Tracking 31027 objects as of 19-Jul-2025
HD Live streaming from Space Station
objects crossing your sky now

IRIDIUM 33 DEB

Track IRIDIUM 33 DEB now!
10-day predictions


NORAD ID: 34651
Int'l Code: 1997-051KC
Perigee: 715.5 km
Apogee: 923.8 km
Inclination: 86.3 °
Period: 101.1 minutes
Semi major axis: 7190 km
RCS: 0.0077 m2 (small)
Launch date: September 14, 1997
Source: United States (US)
Launch site: TYURATAM MISSILE AND SPACE COMPLEX (TTMTR)

Note: This is SATELLITE DEBRIS
Your satellite tracking list
TITAN 3C TRANSTAGE DEB
Track 1 satellite(s)




NASA's NSSDC Master Catalog

Two Line Element Set (TLE):
1 34651U 97051KC  25199.46026858  .00004195  00000-0  16392-2 0  9998
2 34651  86.2863 203.0427 0144904 317.3137  41.6865 14.23806838837998
Source of the keplerian elements: AFSPC